Location: Unspecified
(38.9820°N, 94.4650°W)
Time: 20:53:51
(UTC-06:00)

Hubble Space Telescope - Visible Passes

Search period start: 23 January 2019 00:00
Search period end: 02 February 2019 00:00
Orbit: 537 x 540 km, 28.5° (Epoch: 23 January)

Date Brightness Start Highest point End Pass type
(mag) Time Alt. Az. Time Alt. Az. Time Alt. Az.
23 Jan 2.9 05:24:15 18° S 05:24:15 18° S 05:26:44 10° SE visible
23 Jan 3.4 07:03:36 10° SSW 07:04:21 10° SSW 07:05:05 10° S visible
24 Jan 3.1 05:14:24 16° SSE 05:14:24 16° SSE 05:16:02 10° SSE visible
25 Jan 3.4 05:04:34 12° SSE 05:04:34 12° SSE 05:05:16 10° SSE visible
